Home > Weather > Vallejo > Past weeks

Flag for USA Past Weather in Vallejo, California, USA — Yesterday and Last 2 Weeks

Now
79 °F

Sunny.


Feels Like: 80 °F
Forecast: 57 / 83 °F
Wind: 14 mph from South

Location: Napa County Airport

Current Time: Jul 23, 2016 at 8:14:31 PM

Latest Report: Jul 23, 2016 at 6:54 PM


Visibility: 10 mi

Pressure: 29.79 "Hg

Humidity: 44%

Dew Point: 55 °F

Location of VallejoLocation

Past Weather in Vallejo — Graph

°F

Vallejo Temperature Yesterday

Maximum temperature yesterday: 80 °F (at 1:54 PM)
Minimum temperature yesterday: 46 °F (at 5:54 AM)
Average temperature yesterday: 65 °F

High & Low Weather Summary for the Past Weeks

 TemperatureHumidityPressure
High88 °F (Jul 13, 3:54 PM)100% (Jul 20, 5:54 AM)30.09 "Hg (Jul 20, 5:54 AM)
Low46 °F (Jul 22, 5:54 AM)27% (Jul 10, 3:54 PM)29.79 "Hg (Jul 23, 6:54 PM)
Average64 °F70%29.95 "Hg
* Reported Jul 8 6:54 PM — Jul 23 6:54 PM, Vallejo, Weather by CustomWeather, © 2016

Note: Actual official high and low records may vary slightly from our data, if they occured in-between our weather recording intervals... More about our weather records

Advertising

Vallejo Weather History for the Previous 24 Hours

Scroll right to see more
 ConditionsComfort  
Time TempWeatherWind HumidityBarometerVisibility
6:54 PM
Sat, Jul 23
79 °FSunny.14 mph44%29.79 "Hg10 mi
5:54 PM83 °FSunny.13 mph37%29.80 "Hg10 mi
4:54 PM85 °FSunny.15 mph37%29.82 "Hg10 mi
3:54 PM88 °FSunny.14 mph34%29.84 "Hg10 mi
2:54 PM86 °FSunny.14 mph36%29.86 "Hg10 mi
1:54 PM86 °FSunny.10 mph36%29.89 "Hg10 mi
12:54 PM81 °FSunny.8 mph42%29.91 "Hg10 mi
11:54 AM77 °FSunny.8 mph50%29.93 "Hg10 mi
10:54 AM74 °FSunny.7 mph52%29.94 "Hg10 mi
9:54 AM70 °FSunny.6 mph59%29.96 "Hg10 mi
8:54 AM66 °FSunny.3 mph70%29.96 "Hg10 mi
7:54 AM63 °FSunny.No wind78%29.96 "Hg10 mi
6:54 AM55 °FClear.No wind96%29.96 "Hg10 mi
5:54 AM51 °FClear.3 mph100%29.94 "Hg10 mi
4:54 AM52 °FClear.No wind89%29.93 "Hg10 mi
3:54 AM52 °FClear.No wind97%29.94 "Hg10 mi
2:54 AM57 °FClear.No wind93%29.95 "Hg10 mi
1:54 AM56 °FClear.8 mph93%29.96 "Hg10 mi
12:54 AM58 °FClear.6 mph87%29.97 "Hg10 mi
11:54 PM
Fri, Jul 22
61 °FClear.6 mph83%29.98 "Hg10 mi
10:54 PM62 °FClear.No wind78%29.98 "Hg10 mi
9:54 PM65 °FClear.5 mph70%29.98 "Hg10 mi
8:54 PM68 °FSunny.10 mph61%29.97 "Hg10 mi
Weather by CustomWeather, © 2016

See weather overviewHow to use our weather pages